Torna al catalogo

CENTISPACE-1 S8

AttivoNavigazioneLEO
NORAD 62577·PAYLOAD·🇨🇳 China

Lanciato Jan 13, 2025 da Yellow Sea Launch Area

Loading…

Prossimi Passaggi (prossime 24 ore)

TLE

AggiornatoSource: Space-Track

Epoca: Sep 14, 2026, 13:35 UTC

1 62577U 25007C   26257.56636631 -.00000049  00000-0  86826-4 0  9997
2 62577  54.9870 339.0353 0012209 301.3733  58.6028 13.80625659 87078

Traccia CENTISPACE-1 S8 in tempo reale con AllMySat

Download on the App Store